Weather History for Lincolnton, NC

Change the Weather History Date:

Wednesday, March 13, 2013

  Actual Average (KCLT) Record (KCLT)
Temperature  
Mean Temperature 42 °F 50 °F  
Max Temperature 53 °F 62 °F 86 °F (1990)
Min Temperature 30 °F 39 °F 18 °F (1960)
Degree Days  
Heating Degree Days 24 15  
Month to date heating degree days 213  
Since 1 July heating degree days 2912  
Cooling Degree Days 0 0  
Month to date cooling degree days 0  
Year to date cooling degree days 0  
Moisture  
Dew Point 22 °F    
Average Humidity 51    
Maximum Humidity 100    
Minimum Humidity 21    
Precipitation  
Precipitation 0.00 in 0.13 in 2.31 in (1975)
Month to date precipitation 1.75  
Year to date precipitation 8.48  
Snow  
Snow 0.00 in 0.00 in 3.20 in (1926)
Month to date snowfall 0.4  
Since 1 July snowfall 4.1  
Snow Depth -    
Sea Level Pressure  
Sea Level Pressure 30.05 in    
Wind  
Wind Speed 5 mph (WNW)    
Max Wind Speed 21 mph    
Max Gust Speed 32 mph    
Visibility 10 miles    
Events      
T = Trace of Precipitation, MM = Missing Value Source: NWS Daily Summary

Daily Weather History Graph

Daily Weather History Graph

Search for Another Location

Airport:

Trip Planner

Search our weather history database for the weather conditions in past years. The results will help you decide how hot, cold, wet, or windy it might be!

Date:

Astronomy

Mar. 13, 2013 Rise Set
Actual Time 7:37 AM EDT 7:30 PM EDT
Civil Twilight 7:12 AM EDT 7:56 PM EDT
Nautical Twilight 6:42 AM EDT 8:25 PM EDT
Astronomical Twilight 6:13 AM EDT 8:55 PM EDT
Moon 8:21 AM EDT (3/13) 9:39 PM EDT (3/13)
Length of Visible Light 12h 43m
Length of Day
11h 52m
Waxing Crescent, 4% of the Moon is Illuminated
Mar 13
Waxing Crescent
Mar 19
First Quarter
Mar 27
Full
Apr 3
Last Quarter
Apr 10
New

Hourly Weather History & Observations

Time (EDT) Temp. Windchill Dew Point Humidity Pressure Visibility Wind Dir Wind Speed Gust Speed Precip Events Conditions
12:15 AM 42.8 °F - 30.2 °F 61% 30.00 in 10.0 mi Calm Calm - N/A   Clear
12:35 AM 35.6 °F 32.8 °F 30.2 °F 81% 29.99 in 10.0 mi WSW 3.5 mph - N/A   Clear
12:55 AM 37.4 °F - 32.0 °F 81% 29.99 in 10.0 mi Calm Calm - N/A   Clear
1:35 AM 35.6 °F - 30.2 °F 81% 30.00 in 10.0 mi Calm Calm - N/A   Clear
1:55 AM 35.6 °F - 30.2 °F 81% 30.00 in 10.0 mi Calm Calm - N/A   Clear
2:15 AM 32.0 °F - 30.2 °F 93% 30.01 in 10.0 mi Calm Calm - N/A   Clear
2:35 AM 32.0 °F - 30.2 °F 93% 30.01 in 10.0 mi Calm Calm - N/A   Clear
2:55 AM 33.8 °F - 30.2 °F 87% 30.01 in 10.0 mi Calm Calm - N/A   Clear
3:15 AM 32.0 °F 28.7 °F 32.0 °F 100% 30.02 in 10.0 mi West 3.5 mph - N/A   Clear
3:35 AM 32.0 °F - 30.2 °F 93% 30.01 in 10.0 mi Calm Calm - N/A   Clear
3:55 AM 32.0 °F - 30.2 °F 93% 30.01 in 10.0 mi Calm Calm - N/A   Clear
4:15 AM 32.0 °F - 30.2 °F 93% 30.01 in 10.0 mi Calm Calm - N/A   Clear
4:55 AM 32.0 °F - 30.2 °F 93% 30.02 in 10.0 mi Calm Calm - N/A   Clear
5:15 AM 32.0 °F - 30.2 °F 93% 30.02 in 10.0 mi Calm Calm - N/A   Clear
5:35 AM 30.2 °F - 30.2 °F 100% 30.03 in 10.0 mi Calm Calm - N/A   Clear
5:55 AM 32.0 °F - 30.2 °F 93% 30.04 in 10.0 mi Calm Calm - N/A   Clear
6:15 AM 32.0 °F 28.7 °F 30.2 °F 93% 30.05 in 10.0 mi NW 3.5 mph - N/A   Clear
6:35 AM 37.4 °F 34.9 °F 24.8 °F 60% 30.05 in 10.0 mi NW 3.5 mph - N/A   Clear
6:55 AM 37.4 °F - 23.0 °F 56% 30.05 in 10.0 mi Calm Calm - N/A   Clear
7:15 AM 32.0 °F - 24.8 °F 75% 30.06 in 10.0 mi Calm Calm - N/A   Clear
7:35 AM 32.0 °F - 26.6 °F 80% 30.05 in 10.0 mi Calm Calm - N/A   Clear
7:55 AM 32.0 °F - 26.6 °F 80% 30.06 in 10.0 mi Calm Calm - N/A   Clear
8:15 AM 32.0 °F 28.7 °F 26.6 °F 80% 30.06 in 10.0 mi WSW 3.5 mph - N/A   Clear
8:35 AM 33.8 °F - 30.2 °F 87% 30.07 in 10.0 mi Calm Calm - N/A   Clear
8:55 AM 37.4 °F 33.8 °F 30.2 °F 75% 30.07 in 10.0 mi WSW 4.6 mph - N/A   Clear
9:15 AM 42.8 °F 40.1 °F 28.4 °F 57% 30.08 in 10.0 mi WSW 4.6 mph - N/A   Clear
9:35 AM 44.6 °F 41.4 °F 26.6 °F 49% 30.08 in 10.0 mi WSW 5.8 mph - N/A   Clear
9:55 AM 46.4 °F 41.9 °F 24.8 °F 43% 30.07 in 10.0 mi WSW 9.2 mph - N/A   Clear
10:15 AM 48.2 °F - 23.0 °F 37% 30.07 in 10.0 mi SSW 8.1 mph - N/A   Clear
10:35 AM 50.0 °F - 23.0 °F 35% 30.07 in 10.0 mi WSW 11.5 mph 19.6 mph N/A   Clear
10:55 AM 50.0 °F - 23.0 °F 35% 30.06 in 10.0 mi WSW 18.4 mph 26.5 mph N/A   Clear
11:15 AM 51.8 °F - 23.0 °F 33% 30.06 in 10.0 mi West 19.6 mph 32.2 mph N/A   Scattered Clouds
11:35 AM 50.0 °F - 21.2 °F 32% 30.06 in 10.0 mi West 13.8 mph 28.8 mph N/A   Mostly Cloudy
11:55 AM 53.6 °F - 21.2 °F 28% 30.05 in 10.0 mi WSW 17.3 mph 29.9 mph N/A   Mostly Cloudy
12:15 PM 53.6 °F - 21.2 °F 28% 30.05 in 10.0 mi West 13.8 mph 23.0 mph N/A   Mostly Cloudy
12:35 PM 53.6 °F - 21.2 °F 28% 30.05 in 10.0 mi WSW 17.3 mph 25.3 mph N/A   Overcast
12:55 PM 53.6 °F - 17.6 °F 24% 30.04 in 10.0 mi West 11.5 mph 26.5 mph N/A   Mostly Cloudy
1:15 PM 53.6 °F - 23.0 °F 30% 30.04 in 10.0 mi WNW 6.9 mph 16.1 mph N/A   Scattered Clouds
1:35 PM 51.8 °F - 21.2 °F 30% 30.03 in 10.0 mi WNW 6.9 mph 18.4 mph N/A   Scattered Clouds
1:55 PM 51.8 °F - 19.4 °F 28% 30.02 in 10.0 mi WNW 11.5 mph 21.9 mph N/A   Scattered Clouds
2:15 PM 53.6 °F - 15.8 °F 22% 30.01 in 10.0 mi West 11.5 mph 26.5 mph N/A   Scattered Clouds
2:35 PM 53.6 °F - 15.8 °F 22% 30.01 in 10.0 mi West 20.7 mph 27.6 mph N/A   Scattered Clouds
2:55 PM 53.6 °F - 14.0 °F 21% 30.00 in 10.0 mi West 11.5 mph 24.2 mph N/A   Scattered Clouds
3:15 PM 53.6 °F - 15.8 °F 22% 30.00 in 10.0 mi West 15.0 mph 21.9 mph N/A   Clear
3:35 PM 53.6 °F - 19.4 °F 26% 30.00 in 10.0 mi NW 9.2 mph 21.9 mph N/A   Clear
3:55 PM 53.6 °F - 19.4 °F 26% 30.00 in 10.0 mi WNW 10.4 mph 17.3 mph N/A   Clear
4:15 PM 51.8 °F - 21.2 °F 30% 30.00 in 10.0 mi NW 10.4 mph 17.3 mph N/A   Clear
4:35 PM 51.8 °F - 19.4 °F 28% 30.01 in 10.0 mi WNW 12.7 mph 21.9 mph N/A   Clear
4:55 PM 51.8 °F - 19.4 °F 28% 30.01 in 10.0 mi NW 11.5 mph 20.7 mph N/A   Clear
5:15 PM 50.0 °F - 17.6 °F 28% 30.02 in 10.0 mi NNW 10.4 mph 20.7 mph N/A   Clear
5:35 PM 50.0 °F - 19.4 °F 30% 30.03 in 10.0 mi WNW 11.5 mph 21.9 mph N/A   Clear
5:55 PM 48.2 °F - 15.8 °F 27% 30.04 in 10.0 mi NNW 13.8 mph 23.0 mph N/A   Clear
6:15 PM 48.2 °F - 14.0 °F 25% 30.04 in 10.0 mi WNW 12.7 mph 24.2 mph N/A   Clear
6:35 PM 46.4 °F 41.1 °F 14.0 °F 27% 30.05 in 10.0 mi NW 11.5 mph 20.7 mph N/A   Clear
6:55 PM 44.6 °F 38.8 °F 15.8 °F 31% 30.07 in 10.0 mi NNW 11.5 mph 18.4 mph N/A   Clear
7:15 PM 44.6 °F 40.2 °F 15.8 °F 31% 30.08 in 10.0 mi WNW 8.1 mph - N/A   Clear
7:35 PM 42.8 °F 39.3 °F 15.8 °F 34% 30.09 in 10.0 mi NW 5.8 mph - N/A   Clear
7:55 PM 41.0 °F 33.9 °F 15.8 °F 36% 30.10 in 10.0 mi NW 12.7 mph 16.1 mph N/A   Clear
8:15 PM 41.0 °F 34.7 °F 14.0 °F 33% 30.10 in 10.0 mi NW 10.4 mph 19.6 mph N/A   Clear
8:35 PM 41.0 °F 34.7 °F 14.0 °F 33% 30.11 in 10.0 mi NW 10.4 mph 17.3 mph N/A   Clear
8:55 PM 39.2 °F 32.5 °F 14.0 °F 36% 30.12 in 10.0 mi NW 10.4 mph 18.4 mph N/A   Clear
9:15 PM 39.2 °F 31.2 °F 14.0 °F 36% 30.12 in 10.0 mi NNW 13.8 mph 23.0 mph N/A   Clear
9:35 PM 37.4 °F 30.3 °F 14.0 °F 38% 30.13 in 10.0 mi NW 10.4 mph - N/A   Clear
9:55 PM 37.4 °F 32.1 °F 14.0 °F 38% 30.14 in 10.0 mi NW 6.9 mph - N/A   Clear
10:15 PM 37.4 °F 33.8 °F 15.8 °F 41% 30.14 in 10.0 mi WNW 4.6 mph - N/A   Clear
10:35 PM 37.4 °F 33.8 °F 15.8 °F 41% 30.15 in 10.0 mi NW 4.6 mph - N/A   Clear
10:55 PM 35.6 °F 32.8 °F 15.8 °F 44% 30.15 in 10.0 mi WNW 3.5 mph - N/A   Clear
11:15 PM 35.6 °F 28.0 °F 15.8 °F 44% 30.15 in 10.0 mi NNW 10.4 mph - N/A   Clear
11:35 PM 35.6 °F 29.2 °F 14.0 °F 41% 30.15 in 10.0 mi NW 8.1 mph - N/A   Clear
11:55 PM 35.6 °F 29.9 °F 14.0 °F 41% 30.16 in 10.0 mi NW 6.9 mph - N/A   Clear